EST,Max TemperatureF,Mean TemperatureF,Min TemperatureF,Max Dew PointF,MeanDew PointF,Min DewpointF,Max Humidity, Mean Humidity, Min Humidity, Max Sea Level PressureIn, Mean Sea Level PressureIn, Min Sea Level PressureIn, Max VisibilityMiles, Mean VisibilityMiles, Min VisibilityMiles, Max Wind SpeedMPH, Mean Wind SpeedMPH, Max Gust SpeedMPH,PrecipitationIn, CloudCover, Events, WindDirDegrees
2013-12-1,49,43,37,32,29,28,70,58,46,30.35,30.17,30.02,10,10,10,10,3,13,0.00,7,,342
2013-12-2,45,43,41,38,35,29,82,70,57,30.01,29.95,29.90,10,8,7,9,6,21,0.00,6,,44
2013-12-3,53,46,38,37,34,32,86,66,46,30.01,29.93,29.88,10,8,6,10,4,12,0.00,4,,2
2013-12-4,49,44,39,42,35,31,83,70,56,30.14,30.10,30.02,8,7,5,10,6,21,0.00,6,,54
2013-12-5,58,52,46,54,48,42,100,93,86,30.12,30.04,29.94,10,4,0,14,6,17,0.01,8,Fog-Rain,115
2013-12-6,55,46,37,54,43,32,100,88,76,30.16,30.02,29.88,10,5,0,20,10,23,0.73,8,Rain,15
2013-12-7,41,37,32,32,26,15,89,67,44,30.51,30.29,30.11,10,9,2,20,12,24,0.13,6,Rain-Snow,338
2013-12-8,34,32,29,29,20,14,85,66,47,30.60,30.52,30.39,10,6,1,17,10,26,0.05,7,Rain-Snow,34
2013-12-9,39,36,32,36,33,30,96,83,70,30.37,30.12,29.97,10,4,2,24,13,30,0.21,7,Rain,16
2013-12-10,39,35,30,31,27,12,92,71,49,30.13,29.97,29.88,10,6,0,25,11,30,0.22,7,Fog-Rain-Snow,286
2013-12-11,34,31,27,15,12,9,50,44,38,30.33,30.25,30.15,10,10,10,24,15,33,0.00,2,,257
2013-12-12,30,27,23,15,6,0,63,48,33,30.37,30.27,30.17,10,10,10,24,15,35,0.00,2,,298
2013-12-13,35,30,24,15,8,1,41,38,35,30.33,30.20,30.14,10,10,10,23,13,32,0.00,5,,267
2013-12-14,36,30,24,34,22,14,92,68,43,30.51,30.28,29.81,10,3,0,29,17,33,0.44,8,Fog-Rain-Snow,55
2013-12-15,39,35,30,36,28,17,92,72,51,29.85,29.64,29.50,10,8,2,35,15,41,0.77,7,Rain-Snow,303
2013-12-16,34,30,26,19,10,7,56,46,36,30.24,30.07,29.84,10,10,10,26,12,33,0.00,3,,288
2013-12-17,32,28,24,28,19,7,92,67,42,30.22,30.07,29.94,10,5,0,20,9,24,0.16,8,Rain-Snow,46
2013-12-18,37,31,24,21,18,16,81,64,47,30.17,30.05,29.93,10,10,10,23,13,30,0.00,4,,296
2013-12-19,48,40,31,28,23,17,63,54,45,30.18,30.12,30.04,10,10,10,22,9,26,0.00,4,,222
2013-12-20,54,46,38,44,31,27,68,55,41,30.11,30.04,29.98,10,10,10,16,7,29,0.00,7,,209
2013-12-21,60,55,50,49,46,44,86,73,60,30.01,29.95,29.91,10,10,9,17,7,26,T,6,Rain,206
2013-12-22,69,61,53,59,53,49,86,74,61,29.96,29.89,29.82,10,10,6,20,11,28,0.01,7,Rain,197
2013-12-23,62,52,42,56,49,31,93,80,67,30.15,30.00,29.89,10,7,1,24,8,33,0.53,8,Rain,294
2013-12-24,42,35,27,26,20,8,69,57,44,30.34,30.18,30.09,10,10,10,28,14,36,T,5,,334
2013-12-25,31,25,19,18,7,4,56,47,37,30.54,30.48,30.36,10,10,10,28,9,33,0.00,4,,327
2013-12-26,36,33,30,23,20,15,63,55,47,30.42,30.28,30.18,10,10,10,20,8,29,0.00,5,,267
2013-12-27,40,36,32,23,18,15,61,49,37,30.36,30.31,30.27,10,10,10,20,12,28,0.00,3,,270
2013-12-28,55,46,36,26,23,21,56,42,27,30.28,30.16,30.08,10,10,10,21,11,29,0.00,2,,224
2013-12-29,48,44,40,41,34,24,93,66,39,30.06,29.76,29.42,10,6,1,23,9,28,1.20,7,Rain,360
2013-12-30,44,34,24,35,24,8,76,61,46,30.19,29.98,29.71,10,10,10,23,13,28,T,5,,308
2013-12-31,32,27,21,20,11,6,57,48,39,30.29,30.16,30.07,10,9,2,25,11,32,T,5,Snow,277